DMSP 5D-2 F13 DEB, 40600

Orbit data source: Space-Track

DMSP 5D-2 F13 DEB, 40600 is space debris in SSO originally from a launch on Fri, 24 Mar 1995 UTC launched from the Air Force Western Test Range (AFWTR). Debris objects in space refer to the collection of defunct objects orbiting the Earth. Examples of debris include non-operational satellites, rocket bodies, and fragments generated from explosions, collisions, or faulty payload assembly.

Loading next visibility...
Identifier
40600, 1995-015EX
Orbit
SSO
Country
Flag of USUS
Related business
Manufacturer
Unknown
Mission
Spacecraft
Bus & Motor
Unknown
Mass
Unknown
Launch date (UTC)
1995-03-24 (31 years ago)
Launch vehicle
Unknown
Launch site
Air Force Western Test Range (AFWTR)
Object type
Payload
Rocket body
Debris
Shape & HBR
Unknown shape, 0.1 m
Radar Cross Section
Medium (>0.1 m² and <1 m²)

Expand to show TLE details & history
Last TLE update: 2 days ago

TLE from 2 days ago
0 DMSP 5D-2 F13 DEB
1 40600U 95015EX  26171.06637336  .00004583  00000-0  15551-2 0  9990
2 40600  98.8549 218.1351 0033538  22.2628 338.0005 14.36868334576294
Epoch: 2026-06-20T01:35Z
TLE epoch observation values (Epoch: 2026-06-20T01:35:34.658Z)
Latitude
0.00001°
Longitude
-74.04564°
Altitude
749.58 km
Speed
7.491 km/s
True Right ascension
14h 32m 32s
True Declination
0° 00' 00"
Sunlit
Object was in full shadow at epoch
Visualization orbit readout
Latitude
Unknown
Longitude
Unknown
Altitude
Unknown
Speed
Unknown
Apparent Right ascension
Unknown
Apparent Declination
Unknown
Sunlit
N/A
Visualization observer readout
Local Sidereal Time
21:36:06
Azimuth
Unknown
Elevation
Unknown
Doppler factor
Unknown
Orbital elements
Apogee altitude
789.967 km
Perigee altitude
742.047 km
Semi-major axis
7,144.144 km
Eccentricity
0.00335
Inclination
98.8549°
RAAN
218.1351°
Arg. of periapsis
22.2628°
True anomaly
337.85597°
Mean anomaly
338.0005°
Eccentric anomaly
337.92829°
Mean motion
3.59433 °/min
Orbital period
100.16 mins
BSTAR
0.0015551

Documentation

Showing up to 5 results
|